Location: La Comballaz
(46.3780°N, 7.0817°E)
Time: 00:20:55
(UTC+00:00)

ATLAS 2AS CENTAUR R/B - Pass Details

Date: 09 April 2020
Orbit: 933 x 1279 km, 63.7° (Epoch: 30 May)

Event Time Altitude Azimuth Distance (km) Brightness Sun altitude
Rises 19:57:03 0° 317° (NW) 4,152 7.3 -17.5°
Reaches altitude 10° 20:00:07 10° 310° (NW) 3,139 6.4 -18.0°
Maximum altitude 20:06:50 37° 247° (WSW) 1,687 4.0 -18.9°
Drops below altitude 10° 20:13:02 10° 182° (S) 2,895 4.6 -19.8°
Enters shadow 20:13:04 10° 182° (S) 2,901 4.7 -19.8°
